Regional Weather Roundup
Issued by NWS Cleveland, OH

Home | Current Version | Previous Version | Graphics & Text | Print | Product List | Glossary On
Versions: 1 2 3 4 5 6 7 8 9 10 11 12 13 14 15 16 17 18 19 20 21 22 23 24 25 26 27 28 29 30 31 32 33 34 35 36 37 38 39 40 41 42 43 44 45 46 47 48 49 50
000
ASUS41 KCLE 132010
RWRCLE
OHIO REGIONAL WEATHER ROUNDUP
NATIONAL WEATHER SERVICE CLEVELAND, OH
300 PM EST WED DEC 13 2017

NOTE: "FAIR" INDICATES FEW OR NO CLOUDS BELOW 12,000 FEET WITH NO
SIGNIFICANT WEATHER AND/OR OBSTRUCTIONS TO VISIBILITY.

OHZ001>008-015>018-024>027-034-035-043-044-132100-
   NORTHWEST OHIO

CITY           SKY/WX    TMP DP  RH WIND       PRES   REMARKS
DEFIANCE       CLOUDY    28  11  48 S13       29.45F WCI  17
FINDLAY        PTSUNNY   28  10  46 S23G29    29.46F WCI  14
TOLEDO EXPRESS CLOUDY    24  17  74 SE9       29.47F WCI  14
TOLEDO EXEC    CLOUDY    24  17  74 SE15      29.51F WCI  11
LIMA           CLOUDY    27  14  58 S22       29.44F WCI  13
$$

OHZ009>014-019>023-028>033-038-089-132100-
   NORTHEAST OHIO

CITY           SKY/WX    TMP DP  RH WIND       PRES   REMARKS
CLE-HOPKINS    LGT SNOW  21  17  84 S13       29.62F VSB 1   WCI   9
CLE-LAKEFRONT  LGT SNOW  22  17  81 SE12      29.59F WCI  10
CUY CO. ARPT   SNOWSHWR  23  18  80 S14       29.62F WCI  11
LORAIN-ELYRIA  LGT SNOW  20  13  74 S15       29.57F WCI   6
ASHTABULA      LGT SNOW  21  15  78 S9        29.62F WCI  11
AKRON-CANTON   LGT SNOW  20  14  77 S17       29.60F VSB 3/4 WCI   5
WOOSTER        LGT SNOW  19  15  84 S12       29.58F FOG     WCI   7
MANSFIELD      CLOUDY    20  15  81 SE16      29.53F WCI   6
YOUNGSTOWN     LGT SNOW  21  16  81 S6        29.62F VSB 3/4 WCI  13
$$

OHZ042-051>053-060>062-070>072-077>081-132100-
  SOUTHWEST OHIO

CITY           SKY/WX    TMP DP  RH WIND       PRES   REMARKS
CINC-COVINGTON CLOUDY    37  11  34 S20G30    29.48F
CINC-LUNKEN    CLOUDY    37   9  31 S17G24    29.52F
HAMILTON       CLOUDY    36  10  34 S8G20     29.49F
DAYTON         CLOUDY    29  14  53 S17G25    29.45F WCI  17
WRIGHT-PAT AFB CLOUDY    31   9  39 S13       29.48F WCI  21
DAYTON GENERAL MOSUNNY   31  11  43 S17G28    29.46F WCI  19
WILMINGTON     CLOUDY    30  13  49 S18G28    29.48F WCI  18
$$

OHZ036-037-039>041-045>050-054>059-063>069-073>076-082>088-132100-
  CENTRAL AND SOUTHEAST OHIO

CITY           SKY/WX    TMP DP  RH WIND       PRES   REMARKS
COLUMBUS       CLOUDY    27  11  51 SE13      29.57F WCI  16
OSU AIRPORT    CLOUDY    26  12  55 SE16      29.55F WCI  14
BOLTON FIELD   PTSUNNY   27  12  54 S18       29.57F WCI  13
RICKENBACK AFB CLOUDY    27  12  53 S14G22    29.57F WCI  15
NEWARK         CLOUDY    27   9  46 SE12G23   29.57F WCI  17
MARION         NOT AVBL
LANCASTER      CLOUDY    27  11  51 SE17      29.57F WCI  14
ZANESVILLE     CLOUDY    26   8  46 SE15      29.63F WCI  14
NEW PHILLY     NOT AVBL
$$



USA.gov is the U.S. government's official web portal to all federal, state and local government web resources and services.